Weather History for Opa Locka, FL

Change the Weather History Date:

Wednesday, February 27, 2013

  Actual Average Record
Temperature  
Mean Temperature 72 °F -  
Max Temperature 77 °F 76 °F 87 °F (2007)
Min Temperature 66 °F 57 °F 38 °F (1967)
Cooling Degree Days 6    
Growing Degree Days 22 (Base 50)    
Moisture  
Dew Point 67 °F    
Average Humidity 86    
Maximum Humidity 94    
Minimum Humidity 64    
Precipitation  
Precipitation 0.27 in - - ()
Sea Level Pressure  
Sea Level Pressure 29.94 in    
Wind  
Wind Speed 6 mph (NW)    
Max Wind Speed 10 mph    
Max Gust Speed -    
Visibility 9 miles    
Events Rain    
Averages and records for this station are not official NWS values.
T = Trace of Precipitation, MM = Missing Value Source: NWS Daily Summary

Daily Weather History Graph

Daily Weather History Graph

Search for Another Location

Airport:

Trip Planner

Search our weather history database for the weather conditions in past years. The results will help you decide how hot, cold, wet, or windy it might be!

Date:

Astronomy

Feb. 27, 2013 Rise Set
Actual Time 6:46 AM EST 6:21 PM EST
Civil Twilight 6:22 AM EST 6:44 PM EST
Nautical Twilight 5:56 AM EST 7:11 PM EST
Astronomical Twilight 5:29 AM EST 7:38 PM EST
Moon 8:21 PM EST (2/27) 7:36 AM EST (2/27)
Length of Visible Light 12h 22m
Length of Day
11h 35m
Waning Gibbous, 96% of the Moon is Illuminated
Feb 27
Waning Gibbous
Mar 4
Last Quarter
Mar 11
New
Mar 19
First Quarter
Mar 27
Full

Hourly Weather History & Observations

Time (EST) Temp. Dew Point Humidity Pressure Visibility Wind Dir Wind Speed Gust Speed Precip Events Conditions
12:53 AM 77.0 °F 71.1 °F 82% 29.91 in 10.0 mi SW 6.9 mph - N/A   Partly Cloudy
1:53 AM 77.0 °F 72.0 °F 84% 29.90 in 10.0 mi SW 4.6 mph - N/A   Clear
2:53 AM 77.0 °F 73.0 °F 88% 29.88 in 10.0 mi SW 5.8 mph - N/A   Mostly Cloudy
3:45 AM 75.2 °F 73.4 °F 94% 29.88 in 10.0 mi West 6.9 mph - N/A   Mostly Cloudy
3:49 AM 75.2 °F 73.4 °F 94% 29.88 in 10.0 mi West 8.1 mph - N/A   Mostly Cloudy
3:53 AM 75.9 °F 73.0 °F 91% 29.88 in 10.0 mi West 9.2 mph - N/A   Overcast
4:16 AM 75.2 °F 73.4 °F 94% 29.88 in 10.0 mi West 6.9 mph - N/A   Overcast
4:32 AM 75.2 °F 73.4 °F 94% 29.88 in 10.0 mi West 5.8 mph - N/A   Overcast
4:44 AM 75.2 °F 71.6 °F 89% 29.88 in 10.0 mi West 5.8 mph - N/A   Overcast
4:53 AM 73.9 °F 72.0 °F 93% 29.89 in 10.0 mi WNW 8.1 mph - N/A   Overcast
5:35 AM 73.4 °F 71.6 °F 94% 29.89 in 10.0 mi WNW 5.8 mph - N/A   Overcast
5:46 AM 73.4 °F 71.6 °F 94% 29.90 in 10.0 mi WNW 9.2 mph - N/A   Overcast
5:53 AM 73.9 °F 71.1 °F 91% 29.91 in 10.0 mi NW 8.1 mph - N/A   Overcast
6:05 AM 73.4 °F 69.8 °F 88% 29.91 in 10.0 mi WNW 8.1 mph - N/A   Overcast
6:26 AM 69.8 °F 66.2 °F 88% 29.93 in 10.0 mi NW 10.4 mph - N/A Rain Light Rain
6:35 AM 69.8 °F 64.4 °F 83% 29.93 in 7.0 mi NNW 10.4 mph - 0.11 in Rain Rain
6:53 AM 70.0 °F 64.9 °F 84% 29.94 in 10.0 mi NNW 6.9 mph - 0.12 in   Overcast
7:53 AM 71.1 °F 66.0 °F 84% 29.95 in 10.0 mi NNW 5.8 mph - N/A   Overcast
8:53 AM 72.0 °F 64.9 °F 78% 29.96 in 10.0 mi NNW 9.2 mph - N/A   Scattered Clouds
9:53 AM 75.0 °F 64.9 °F 71% 29.98 in 10.0 mi Variable 5.8 mph - N/A   Clear
10:45 AM 75.2 °F 64.4 °F 69% 29.98 in 10.0 mi WNW 3.5 mph - N/A   Mostly Cloudy
10:53 AM 77.0 °F 64.0 °F 64% 29.98 in 10.0 mi NNW 3.5 mph - N/A   Overcast
11:10 AM 77.0 °F 64.4 °F 65% 29.97 in 10.0 mi NNW 3.5 mph - N/A   Overcast
11:53 AM 75.9 °F 63.0 °F 64% 29.98 in 10.0 mi NW 6.9 mph - N/A   Overcast
12:44 PM 71.6 °F 66.2 °F 83% 29.97 in 3.0 mi NNW 9.2 mph - 0.06 in Rain Light Rain
12:53 PM 71.1 °F 64.9 °F 81% 29.96 in 3.0 mi NW 6.9 mph - 0.06 in   Haze
1:53 PM 70.0 °F 66.0 °F 87% 29.96 in 5.0 mi NNW 9.2 mph - 0.00 in Rain Light Rain
2:34 PM 71.6 °F 66.2 °F 83% 29.93 in 5.0 mi North 4.6 mph - 0.01 in Rain Light Rain
2:46 PM 71.6 °F 66.2 °F 83% 29.93 in 5.0 mi NNW 6.9 mph - 0.01 in Rain Light Rain
2:53 PM 71.1 °F 66.0 °F 84% 29.94 in 10.0 mi North 4.6 mph - 0.01 in   Mostly Cloudy
3:26 PM 71.6 °F 66.2 °F 83% 29.92 in 10.0 mi North 3.5 mph - N/A   Mostly Cloudy
3:49 PM 71.6 °F 66.2 °F 83% 29.92 in 10.0 mi Calm Calm - N/A   Overcast
3:53 PM 71.1 °F 66.0 °F 84% 29.93 in 10.0 mi Calm Calm - N/A   Overcast
4:53 PM 72.0 °F 66.0 °F 81% 29.93 in 10.0 mi NW 5.8 mph - N/A   Mostly Cloudy
5:53 PM 70.0 °F 64.9 °F 84% 29.94 in 10.0 mi NNW 9.2 mph - N/A   Overcast
6:10 PM 69.8 °F 64.4 °F 83% 29.94 in 10.0 mi NNW 6.9 mph - N/A   Overcast
6:53 PM 69.1 °F 64.0 °F 84% 29.96 in 10.0 mi NNW 5.8 mph - N/A   Mostly Cloudy
7:53 PM 68.0 °F 64.0 °F 87% 29.96 in 10.0 mi North 6.9 mph - N/A   Overcast
8:53 PM 68.0 °F 64.0 °F 87% 29.99 in 10.0 mi NNW 6.9 mph - 0.01 in   Overcast
9:53 PM 66.9 °F 64.9 °F 93% 29.98 in 10.0 mi North 3.5 mph - 0.07 in   Overcast
10:02 PM 66.2 °F 64.4 °F 94% 29.98 in 10.0 mi Calm Calm - N/A   Overcast
10:13 PM 66.2 °F 64.4 °F 94% 29.98 in 10.0 mi Calm Calm - N/A   Overcast
10:23 PM 66.2 °F 64.4 °F 94% 29.97 in 10.0 mi Calm Calm - N/A   Overcast
10:53 PM 66.9 °F 64.9 °F 93% 29.98 in 10.0 mi NW 3.5 mph - N/A   Overcast
11:03 PM 66.2 °F 64.4 °F 94% 29.97 in 10.0 mi Calm Calm - N/A   Overcast
11:16 PM 68.0 °F 64.4 °F 88% 29.97 in 10.0 mi West 3.5 mph - N/A   Overcast
11:53 PM 66.9 °F 64.9 °F 93% 29.97 in 10.0 mi WNW 5.8 mph - N/A   Overcast